Weather History for GMMZ - February, 2013

Change the Weather History Date:

Wednesday, February 27, 2013

  Actual Average Record
Temperature  
Mean Temperature 58 °F -  
Max Temperature 70 °F 72 °F - ()
Min Temperature 47 °F 44 °F - ()
Degree Days  
Heating Degree Days 6    
Growing Degree Days 8 (Base 50)    
Moisture  
Dew Point 20 °F    
Average Humidity 21    
Maximum Humidity 38    
Minimum Humidity 6    
Precipitation  
Precipitation 0.00 in 0.01 in - ()
Sea Level Pressure  
Sea Level Pressure 29.81 in    
Wind  
Wind Speed 6 mph ()    
Max Wind Speed 24 mph    
Max Gust Speed -    
Visibility 8.9 miles    
Events      
T = Trace of Precipitation, MM = Missing Value Source: Averaged Metar Reports

Daily Weather History Graph

Daily Weather History Graph

Search for Another Location

Airport or City:

Trip Planner

Search our weather history database for the weather conditions in past years. The results will help you decide how hot, cold, wet, or windy it might be!

Date:

Astronomy

Feb. 27, 2013 Rise Set
Actual Time 6:56 AM WET 6:24 PM WET
Civil Twilight 6:32 AM WET 6:49 PM WET
Nautical Twilight 6:04 AM WET 7:17 PM WET
Astronomical Twilight 5:36 AM WET 7:45 PM WET
Moon 8:18 PM WET (2/27) 7:34 AM WET (2/27)
Length of Visible Light 12h 16m
Length of Day
11h 28m
Full, 97% of the Moon is Illuminated
Feb 27
Full
Mar 4
Last Quarter
Mar 11
New
Mar 19
First Quarter
Mar 27
Full

Hourly Weather History & Observations

Time (WET) Temp. Dew Point Humidity Pressure Visibility Wind Dir Wind Speed Gust Speed Precip Events Conditions
12:00 AM 59 °F 14 °F 8%  in 12 mi West 5.8 mph - -   Clear
12:00 AM 59.0 °F 12.2 °F 16% 29.92 in - West 6.9 mph - N/A   Clear
1:00 AM 59.0 °F 14.0 °F 17% 29.86 in - ENE 3.5 mph - N/A   Clear
2:00 AM 57.2 °F 17.6 °F 21% 29.86 in - ENE 2.3 mph - N/A   Clear
3:00 AM 53 °F 18 °F 14%  in 12 mi NE 2.3 mph - -   Clear
3:00 AM 53.6 °F 17.6 °F 24% 29.86 in - NE 2.3 mph - N/A   Clear
4:00 AM 51.8 °F 19.4 °F 28% 29.86 in - East 2.3 mph - N/A   Clear
5:00 AM 48.2 °F 17.6 °F 30% 29.86 in - NNW 2.3 mph - N/A   Clear
6:00 AM 50 °F 18 °F 16%  in 12 mi NE 3.5 mph - -   Clear
6:00 AM 50.0 °F 17.6 °F 28% 29.86 in - Variable 3.5 mph - N/A   Clear
8:00 AM 51.8 °F 19.4 °F 28% 29.86 in - Variable 3.5 mph - N/A   Clear
9:00 AM 54 °F 19 °F 14%  in 12 mi NE 4.6 mph - -   Partly Cloudy
9:00 AM 53.6 °F 19.4 °F 26% 29.86 in - NE 4.6 mph - N/A   Clear
10:00 AM 55.4 °F 21.2 °F 26% 29.86 in - East 4.6 mph - N/A   Clear
11:00 AM 59.0 °F 21.2 °F 23% 29.86 in - Variable 2.3 mph - N/A   Clear
12:00 PM 63 °F 19 °F 9%  in 12 mi Calm Calm - -   Scattered Clouds
12:00 PM 62.6 °F 19.4 °F 19% 29.83 in - Variable 1.2 mph - N/A   Clear
1:00 PM 66.2 °F 17.6 °F 15% 29.80 in - Variable 2.3 mph - N/A   Clear
3:00 PM 70 °F 18 °F 6%  in 12 mi South 10.4 mph - -   Scattered Clouds
3:00 PM 69.8 °F 17.6 °F 14% 29.74 in - South 10.4 mph - N/A   Clear
4:00 PM 69.8 °F 23.0 °F 17% 29.71 in 6.2 mi SE 10.4 mph - N/A   Partly Cloudy
5:00 PM 68.0 °F 24.8 °F 20% 29.71 in 6.2 mi ESE 12.7 mph - N/A   Partly Cloudy
6:00 PM 68.0 °F 15.8 °F 13% 29.68 in 6.2 mi South 13.8 mph - N/A   Partly Cloudy
7:00 PM 62.6 °F 28.4 °F 27% 29.74 in 6.2 mi WSW 24.2 mph - N/A   Partly Cloudy
8:00 PM 59.0 °F 30.2 °F 34% 29.74 in 6.2 mi West 20.7 mph - N/A   Partly Cloudy
9:00 PM 57 °F 29 °F 22%  in 12 mi West 19.6 mph - -   Scattered Clouds
9:00 PM 57.2 °F 28.4 °F 33% 29.77 in 6.2 mi West 19.6 mph - N/A   Partly Cloudy
10:00 PM 55.4 °F 28.4 °F 36% 29.77 in 6.2 mi WNW 12.7 mph - N/A   Partly Cloudy
11:00 PM 53.6 °F 28.4 °F 38% 29.80 in 6.2 mi West 13.8 mph - N/A   Partly Cloudy